Regional Weather Roundup
Issued by NWS

Home | Current Version | Previous Version | Text Only | Print | Product List | Glossary Off
Versions: 1 2 3 4 5 6 7 8 9 10 11 12 13 14 15 16 17 18 19 20 21 22 23 24 25 26 27 28 29 30 31 32 33 34 35 36 37 38 39 40 41 42 43 44 45 46 47 48 49 50

088
ASUS45 KCYS 230410
RWRWY

WYOMING REGIONAL WEATHER ROUNDUP
NATIONAL WEATHER SERVICE CHEYENNE WY
1000 PM MDT SAT JUL 22 2017

NOTE:  "FAIR" INDICATES FEW OR NO CLOUDS BELOW 12,000 FEET
WITH NO SIGNIFICANT WEATHER AND/OR OBSTRUCTIONS TO VISIBILITY.

WYZ001-230500-
YELLOWSTONE NATIONAL PARK

CITY           SKY/WX    TMP DP  RH WIND       PRES   REMARKS
LK YELLOWSTONE   N/A     54  39  57 W6        30.41R
W YELLOWSTONE  NOT AVBL

$$
WYZ002>013-054>058-071-098>099-230500-
NORTHERN WYOMING

CITY           SKY/WX    TMP DP  RH WIND       PRES   REMARKS
JACKSON        FAIR      59  37  44 NE3       30.28R
CODY           FAIR      73  34  23 CALM      30.20R
GREYBULL       FAIR      81  31  16 NW10      30.07R
WORLAND        FAIR      75  38  26 N7        30.09R
SHERIDAN       FAIR      64  45  49 SW5       30.13R
BUFFALO        FAIR      68  37  32 W7        30.21R
GILLETTE       FAIR      63  35  35 CALM      30.14R
HULETT         FAIR      68  36  30 E7        30.17R
NEWCASTLE      FAIR      72  36  26 E7        30.14R

$$
WYZ014>020-022>026-101>103-230500-
CENTRAL WYOMING

CITY           SKY/WX    TMP DP  RH WIND       PRES   REMARKS
BIG PINEY      FAIR      61  36  39 N12       30.31R
PINEDALE       FAIR      59  43  55 NW5       30.33R
DUBOIS         FAIR      64  32  29 NW5       30.32R
LANDER         FAIR      75  35  23 W13       30.16R
RIVERTON       FAIR      77  26  15 N8        30.17R
CASPER         FAIR      70  29  21 E5        30.18R
DOUGLAS        FAIR      71  51  49 SE5       30.17R

$$
WYZ021-027>030-104>119-230500-
SOUTHERN WYOMING

CITY           SKY/WX    TMP DP  RH WIND       PRES   REMARKS
EVANSTON       FAIR      73  31  21 NE7       30.32R
KEMMERER         N/A    N/A N/A N/A NW9       30.33R
FORT BRIDGER   FAIR      73  27  18 W3        30.33R
ROCK SPRINGS   FAIR      76  23  14 SE10      30.26R
RAWLINS        FAIR      63  27  25 NE8       30.29R
SARATOGA       FAIR      64  36  34 CALM      30.33R
LARAMIE        MOCLDY    64  43  46 SE8       30.33R
CHEYENNE       FAIR      69  47  45 S13       30.26R
TORRINGTON     FAIR      71  54  54 E8        30.11R
PINE BLUFFS    FAIR      72  43  35 S6        30.20R

$$




USA.gov is the U.S. government's official web portal to all federal, state and local government web resources and services.